When you browse on this site, cookies collect data to enhance your experience and personalize the content and advertising you see.
Visit our Privacy Policy to learn more. By continuing to use the site, you agree to this use of cookies and data.
  • In Schweiz
  • Länderverzeichnis
  • Für 7 Tage
  • Wassertemperatur
  • Wetterkarte
  • Widgets
  • user-avatar
    Anmelden

    Stündliche Wetter Valuevo

    Heute, 22 August, Donnerstag

    Zeit Temperatur Niederschläge Wind Luftdruck Luftfeuchtigkeit
    00:00 +20°C° 0 mm 2 m/S 752 mmHg 85%
    01:00 +20°C° 0 mm 2 m/S 752 mmHg 87%
    02:00 +20°C° 0 mm 2 m/S 752 mmHg 89%
    03:00 +19°C° 0 mm 2 m/S 751 mmHg 90%
    04:00 +19°C° 0 mm 2 m/S 751 mmHg 90%
    05:00 +19°C° 0 mm 2 m/S 751 mmHg 91%
    06:00 +21°C° 0 mm 2 m/S 751 mmHg 86%
    07:00 +23°C° 0 mm 2 m/S 751 mmHg 81%
    08:00 +25°C° 0 mm 2 m/S 751 mmHg 76%
    09:00 +26°C° 0 mm 2 m/S 751 mmHg 71%
    10:00 +27°C° 0 mm 2 m/S 751 mmHg 67%
    11:00 +28°C° 0 mm 2 m/S 751 mmHg 63%
    12:00 +28°C° 0.4 mm 3 m/S 751 mmHg 66%
    13:00 +27°C° 0.4 mm 3 m/S 751 mmHg 68%
    14:00 +27°C° 0.4 mm 4 m/S 751 mmHg 71%
    15:00 +26°C° 0.2 mm 4 m/S 751 mmHg 75%
    16:00 +23°C° 0.2 mm 5 m/S 751 mmHg 79%
    17:00 +22°C° 0.2 mm 5 m/S 751 mmHg 82%
    18:00 +21°C° 0 mm 5 m/S 752 mmHg 83%
    19:00 +19°C° 0 mm 4 m/S 752 mmHg 84%
    20:00 +18°C° 0 mm 4 m/S 753 mmHg 84%
    21:00 +18°C° 0 mm 4 m/S 753 mmHg 86%
    22:00 +17°C° 0 mm 4 m/S 753 mmHg 87%
    23:00 +16°C° 0 mm 3 m/S 754 mmHg 89%

    Morgen, 23 August, Freitag

    Zeit Temperatur Niederschläge Wind Luftdruck Luftfeuchtigkeit
    00:00 +14°C° 0 mm 3 m/S 754 mmHg 90%
    01:00 +14°C° 0 mm 3 m/S 755 mmHg 91%
    02:00 +13°C° 0 mm 3 m/S 755 mmHg 92%
    03:00 +13°C° 0 mm 3 m/S 755 mmHg 93%
    04:00 +13°C° 0 mm 3 m/S 755 mmHg 93%
    05:00 +13°C° 0 mm 3 m/S 755 mmHg 93%
    06:00 +14°C° 0 mm 3 m/S 755 mmHg 88%
    07:00 +16°C° 0 mm 3 m/S 755 mmHg 84%
    08:00 +18°C° 0 mm 4 m/S 756 mmHg 79%
    09:00 +19°C° 0 mm 4 m/S 756 mmHg 74%
    10:00 +20°C° 0 mm 4 m/S 756 mmHg 68%
    11:00 +21°C° 0 mm 3 m/S 756 mmHg 63%
    12:00 +21°C° 0 mm 3 m/S 756 mmHg 61%
    13:00 +22°C° 0 mm 3 m/S 755 mmHg 59%
    14:00 +22°C° 0 mm 3 m/S 755 mmHg 58%
    15:00 +22°C° 0 mm 3 m/S 755 mmHg 62%
    16:00 +21°C° 0 mm 3 m/S 755 mmHg 66%
    17:00 +21°C° 0 mm 2 m/S 755 mmHg 69%
    18:00 +19°C° 0 mm 2 m/S 755 mmHg 72%
    19:00 +17°C° 0 mm 2 m/S 755 mmHg 75%
    20:00 +16°C° 0 mm 2 m/S 755 mmHg 77%
    21:00 +15°C° 0 mm 1 m/S 755 mmHg 79%
    22:00 +15°C° 0 mm 1 m/S 755 mmHg 80%
    23:00 +14°C° 0 mm 1 m/S 755 mmHg 82%

    übermorgen, 24 August, Samstag

    Zeit Temperatur Niederschläge Wind Luftdruck Luftfeuchtigkeit
    00:00 +14°C° 0 mm 1 m/S 756 mmHg 83%
    01:00 +14°C° 0 mm 1 m/S 756 mmHg 84%
    02:00 +13°C° 0 mm 1 m/S 756 mmHg 85%
    03:00 +13°C° 0 mm 1 m/S 756 mmHg 85%
    04:00 +13°C° 0 mm 1 m/S 756 mmHg 86%
    05:00 +13°C° 0 mm 1 m/S 756 mmHg 86%
    06:00 +15°C° 0 mm 1 m/S 756 mmHg 80%
    07:00 +18°C° 0 mm 1 m/S 756 mmHg 74%
    08:00 +20°C° 0 mm 1 m/S 756 mmHg 68%
    09:00 +21°C° 0 mm 1 m/S 756 mmHg 63%
    10:00 +22°C° 0 mm 1 m/S 756 mmHg 58%
    11:00 +23°C° 0 mm 1 m/S 756 mmHg 53%
    12:00 +24°C° 0 mm 1 m/S 755 mmHg 51%
    13:00 +22°C° 0 mm 0 m/S 755 mmHg 48%
    14:00 +23°C° 0 mm 0 m/S 755 mmHg 46%
    15:00 +23°C° 0 mm 0 m/S 754 mmHg 50%
    16:00 +22°C° 0 mm 0 m/S 754 mmHg 54%
    17:00 +22°C° 0 mm 0 m/S 754 mmHg 58%
    18:00 +22°C° 0 mm 1 m/S 754 mmHg 62%
    19:00 +20°C° 0 mm 1 m/S 754 mmHg 65%
    20:00 +18°C° 0 mm 1 m/S 754 mmHg 68%
    21:00 +16°C° 0 mm 1 m/S 754 mmHg 70%
    22:00 +16°C° 0 mm 1 m/S 754 mmHg 72%
    23:00 +16°C° 0 mm 1 m/S 754 mmHg 74%

    25 August, Sonntag

    Zeit Temperatur Niederschläge Wind Luftdruck Luftfeuchtigkeit
    00:00 +15°C° 0 mm 1 m/S 754 mmHg 76%
    01:00 +15°C° 0 mm 1 m/S 754 mmHg 78%
    02:00 +14°C° 0 mm 1 m/S 754 mmHg 80%
    03:00 +14°C° 0 mm 1 m/S 753 mmHg 82%
    04:00 +14°C° 0 mm 1 m/S 753 mmHg 83%
    05:00 +14°C° 0 mm 1 m/S 753 mmHg 85%
    06:00 +15°C° 0 mm 1 m/S 753 mmHg 81%
    07:00 +17°C° 0 mm 2 m/S 753 mmHg 76%
    08:00 +19°C° 0 mm 2 m/S 753 mmHg 72%
    09:00 +20°C° 0 mm 2 m/S 753 mmHg 68%
    10:00 +21°C° 0 mm 2 m/S 753 mmHg 64%
    11:00 +24°C° 0 mm 2 m/S 753 mmHg 59%
    12:00 +24°C° 0 mm 2 m/S 752 mmHg 57%
    13:00 +25°C° 0 mm 3 m/S 752 mmHg 56%
    14:00 +25°C° 0 mm 3 m/S 752 mmHg 54%
    15:00 +24°C° 0.1 mm 3 m/S 752 mmHg 60%
    16:00 +22°C° 0.1 mm 3 m/S 752 mmHg 66%
    17:00 +22°C° 0.1 mm 3 m/S 752 mmHg 73%
    18:00 +20°C° 0 mm 3 m/S 752 mmHg 79%
    19:00 +19°C° 0 mm 3 m/S 752 mmHg 85%
    20:00 +17°C° 0 mm 2 m/S 753 mmHg 91%
    21:00 +16°C° 0 mm 2 m/S 753 mmHg 92%
    22:00 +16°C° 0 mm 2 m/S 753 mmHg 93%
    23:00 +15°C° 0 mm 2 m/S 754 mmHg 94%

    26 August, Montag

    Zeit Temperatur Niederschläge Wind Luftdruck Luftfeuchtigkeit
    00:00 +14°C° 0 mm 3 m/S 754 mmHg 94%
    01:00 +13°C° 0 mm 3 m/S 754 mmHg 93%
    02:00 +12°C° 0 mm 3 m/S 755 mmHg 93%
    03:00 +12°C° 0 mm 3 m/S 755 mmHg 94%
    04:00 +12°C° 0 mm 3 m/S 755 mmHg 94%
    05:00 +11°C° 0 mm 3 m/S 755 mmHg 95%
    06:00 +13°C° 0 mm 3 m/S 756 mmHg 90%
    07:00 +14°C° 0 mm 3 m/S 756 mmHg 86%
    08:00 +16°C° 0 mm 3 m/S 757 mmHg 81%
    09:00 +18°C° 0 mm 3 m/S 757 mmHg 74%
    10:00 +19°C° 0 mm 3 m/S 757 mmHg 68%
    11:00 +20°C° 0 mm 3 m/S 757 mmHg 61%
    12:00 +20°C° 0 mm 3 m/S 757 mmHg 59%
    13:00 +21°C° 0 mm 3 m/S 757 mmHg 57%
    14:00 +21°C° 0 mm 2 m/S 757 mmHg 54%
    15:00 +21°C° 0 mm 2 m/S 756 mmHg 59%
    16:00 +20°C° 0 mm 2 m/S 756 mmHg 63%
    17:00 +20°C° 0 mm 2 m/S 756 mmHg 67%
    18:00 +18°C° 0 mm 2 m/S 756 mmHg 72%
    19:00 +16°C° 0 mm 2 m/S 756 mmHg 77%
    20:00 +15°C° 0 mm 2 m/S 756 mmHg 82%
    21:00 +14°C° 0 mm 2 m/S 757 mmHg 83%
    22:00 +14°C° 0 mm 2 m/S 757 mmHg 85%
    23:00 +13°C° 0 mm 2 m/S 757 mmHg 87%

    27 August, Dienstag

    Zeit Temperatur Niederschläge Wind Luftdruck Luftfeuchtigkeit
    00:00 +13°C° 0 mm 2 m/S 757 mmHg 87%
    01:00 +12°C° 0 mm 2 m/S 757 mmHg 88%
    02:00 +12°C° 0 mm 2 m/S 757 mmHg 88%
    03:00 +12°C° 0 mm 2 m/S 757 mmHg 89%
    04:00 +12°C° 0 mm 2 m/S 757 mmHg 90%
    05:00 +12°C° 0 mm 2 m/S 756 mmHg 90%
    06:00 +13°C° 0 mm 2 m/S 757 mmHg 84%
    07:00 +15°C° 0 mm 2 m/S 757 mmHg 78%
    08:00 +17°C° 0 mm 2 m/S 757 mmHg 72%
    09:00 +18°C° 0 mm 2 m/S 756 mmHg 68%
    10:00 +20°C° 0 mm 2 m/S 756 mmHg 63%
    11:00 +21°C° 0 mm 2 m/S 756 mmHg 59%
    12:00 +21°C° 0 mm 2 m/S 756 mmHg 57%
    13:00 +23°C° 0 mm 2 m/S 755 mmHg 55%
    14:00 +23°C° 0 mm 2 m/S 755 mmHg 53%
    15:00 +23°C° 0 mm 2 m/S 754 mmHg 57%
    16:00 +21°C° 0 mm 2 m/S 754 mmHg 61%
    17:00 +21°C° 0 mm 2 m/S 754 mmHg 65%
    18:00 +19°C° 0 mm 2 m/S 754 mmHg 68%
    19:00 +18°C° 0 mm 2 m/S 754 mmHg 72%
    20:00 +16°C° 0 mm 2 m/S 754 mmHg 75%
    21:00 +16°C° 0 mm 2 m/S 754 mmHg 76%
    22:00 +15°C° 0 mm 2 m/S 754 mmHg 77%
    23:00 +15°C° 0 mm 2 m/S 754 mmHg 78%
    Mehr zeigen